Regional Weather Roundup
Issued by NWS

Home | Current Version | Previous Version | Text Only | Print | Product List | Glossary On
Versions: 1 2 3 4 5 6 7 8 9 10 11 12 13 14 15 16 17 18 19 20 21 22 23 24 25 26 27 28 29 30 31 32 33 34 35 36 37 38 39 40 41 42 43 44 45 46 47 48 49 50
000
ASUS45 KBOI 261210
RWRID

IDAHO REGIONAL WEATHER ROUNDUP
NATIONAL WEATHER SERVICE BOISE ID
600 AM MDT MON SEP 26 2016

NOTE: "FAIR" INDICATES FEW OR NO CLOUDS BELOW 12000 FEET
WITH NO SIGNIFICANT WEATHER AND/OR OBSTRUCTIONS TO VISIBILITY

IDZ012-014-261300-
SOUTHWEST IDAHO


CITY           SKY/WX    TMP DP  RH WIND       PRES   REMARKS
BOISE          CLEAR     54  40  59 SE13      30.33S
CALDWELL       CLEAR     47  38  71 E6        30.32S
MOUNTAIN HOME  CLEAR     46  40  79 E10       30.34S
$$

IDZ016-017-261300-
SOUTHCENTRAL IDAHO


CITY           SKY/WX    TMP DP  RH WIND       PRES   REMARKS
BURLEY         CLEAR     42  40  92 CALM      30.39S
JEROME         CLEAR     49  40  71 NE12      30.39S
TWIN FALLS     CLEAR     45  34  65 SE8       30.39R
$$

IDZ019>023-261300-
SOUTHEAST IDAHO


CITY           SKY/WX    TMP DP  RH WIND       PRES   REMARKS
IDAHO FALLS    CLOUDY    38  35  89 N5        30.45R WCI  34
POCATELLO      CLOUDY    39  36  89 CALM      30.43S
REXBURG        CLOUDY    38  37  97 N5        30.45S WCI  34
$$

IDZ006-010-011-018-031-032-261300-
CENTRAL IDAHO MOUNTAINS


CITY           SKY/WX    TMP DP  RH WIND       PRES   REMARKS
MCCALL         CLEAR     40  37  89 CALM      30.40F
HAILEY         CLEAR     43  37  81 NW9       30.47R
STANLEY          N/A     33  31  92 E3        30.53S
SALMON         CLEAR     37  36  93 CALM      30.45S
CHALLIS        CLEAR     42  36  79 CALM      30.46S
$$

IDZ002-004-006-007-026-261300-
NORTHERN IDAHO


CITY           SKY/WX    TMP DP  RH WIND       PRES   REMARKS
LEWISTON       CLEAR     57  42  57 E9        30.25F
LOWELL           N/A     46  43  89 N5        30.40S
COEUR D`ALENE  NOT AVBL
MULLAN PASS    PTCLDY    48  38  68 S7        30.42F
$$



USA.gov is the U.S. government's official web portal to all federal, state and local government web resources and services.